Rotterdam, Netherlands

2:08 AM CET on February 06, 2016 (GMT +0100)
Rotterdam

Weather History for EHRD - April, 2013

Change the Weather History Date:

Thursday, April 4, 2013

  Actual Average Record
Temperature  
Mean Temperature 37 °F -  
Max Temperature 41 °F 56 °F 64 °F (2002)
Min Temperature 33 °F 41 °F 30 °F (2003)
Degree Days  
Heating Degree Days 28    
Moisture  
Dew Point 26 °F    
Average Humidity 64    
Maximum Humidity 81    
Minimum Humidity 49    
Precipitation  
Precipitation 0.00 in - - ()
Sea Level Pressure  
Sea Level Pressure 29.91 in    
Wind  
Wind Speed 12 mph ()    
Max Wind Speed 20 mph    
Max Gust Speed -    
Visibility 6.9 miles    
Events Snow    
Averages and records for this station are not official NWS values.
T = Trace of Precipitation, MM = Missing Value Source: Averaged Metar Reports

Daily Weather History Graph

Daily Weather History Graph

Search for Another Location

Airport or City:

Trip Planner

Search our weather history database for the weather conditions in past years. The results will help you decide how hot, cold, wet, or windy it might be!

Date:

Astronomy

Apr. 04, 2013 Rise Set
Actual Time 7:10 AM CEST 8:21 PM CEST
Civil Twilight 6:35 AM CEST 8:55 PM CEST
Nautical Twilight 5:53 AM CEST 9:37 PM CEST
Astronomical Twilight 5:08 AM CEST 10:23 PM CEST
Moon 4:08 AM CEST (4/4) 1:41 PM CEST (4/4)
Length of Visible Light 14h 20m
Length of Day
13h 11m
Last Quarter, 36% of the Moon is Illuminated
Apr 4
Last Quarter
Apr 10
New
Apr 18
First Quarter
Apr 25
Full
May 2
Last Quarter

Hourly Weather History & Observations

Time (CEST) Temp. Windchill Dew Point Humidity Pressure Visibility Wind Dir Wind Speed Gust Speed Precip Events Conditions
12:25 AM 35.6 °F 28.6 °F 23.0 °F 60% 29.98 in 6.2 mi East 9.2 mph - N/A   Unknown
12:55 AM 33.8 °F 26.4 °F 23.0 °F 65% 29.98 in 6.2 mi ENE 9.2 mph - N/A   Partly Cloudy
1:25 AM 33.8 °F 25.8 °F 23.0 °F 65% 29.98 in 6.2 mi ENE 10.4 mph - N/A   Overcast
1:55 AM 35.6 °F 29.9 °F 24.8 °F 65% 29.98 in 6.2 mi ENE 6.9 mph - N/A   Overcast
2:00 AM 35 °F - 24 °F 52% 29.99 in 12 mi NE 8.9 mph - -   Partly Cloudy
2:25 AM 35.6 °F 29.2 °F 23.0 °F 60% 29.98 in 6.2 mi NE 8.1 mph - N/A   Overcast
2:55 AM 35.6 °F 27.1 °F 23.0 °F 60% 29.98 in 6.2 mi NE 12.7 mph - N/A   Overcast
3:25 AM 33.8 °F 25.3 °F 23.0 °F 65% 29.95 in 6.2 mi NE 11.5 mph - N/A   Overcast
3:55 AM 33.8 °F 25.3 °F 23.0 °F 65% 29.95 in 6.2 mi NE 11.5 mph - N/A   Partly Cloudy
4:25 AM 33.8 °F 24.8 °F 23.0 °F 65% 29.95 in 6.2 mi NE 12.7 mph - N/A   Overcast
4:55 AM 33.8 °F 24.3 °F 23.0 °F 65% 29.95 in 6.2 mi NE 13.8 mph - N/A   Overcast
5:00 AM 33 °F - 24 °F 57% 29.95 in 14 mi NE 13.4 mph - -   Overcast
5:25 AM 33.8 °F 24.3 °F 23.0 °F 65% 29.95 in 6.2 mi ENE 13.8 mph - N/A   Overcast
5:55 AM 33.8 °F 24.3 °F 23.0 °F 65% 29.92 in 6.2 mi ENE 13.8 mph - N/A   Overcast
6:25 AM 33.8 °F 24.3 °F 23.0 °F 65% 29.95 in 6.2 mi ENE 13.8 mph - N/A   Overcast
6:55 AM 33.8 °F 24.3 °F 23.0 °F 65% 29.92 in 6.2 mi NE 13.8 mph - N/A   Overcast
7:25 AM 33.8 °F 24.3 °F 23.0 °F 65% 29.92 in 6.2 mi NE 13.8 mph - N/A   Overcast
7:55 AM 33.8 °F 23.2 °F 24.8 °F 70% 29.92 in 6.2 mi ENE 17.3 mph - N/A   Overcast
8:00 AM 34 °F - 24 °F 56% 29.94 in 11 mi ENE 17.9 mph - -   Partly Cloudy
8:25 AM 33.8 °F 23.9 °F 24.8 °F 70% 29.92 in 6.2 mi ENE 15.0 mph - N/A   Overcast
8:55 AM 33.8 °F 23.5 °F 24.8 °F 70% 29.92 in 6.2 mi ENE 16.1 mph - N/A Snow Light Snow
9:25 AM 33.8 °F 23.2 °F 26.6 °F 75% 29.95 in 3.7 mi ENE 17.3 mph - N/A Snow Light Snow
9:55 AM 33.8 °F 23.2 °F 28.4 °F 81% 29.92 in 6.2 mi ENE 17.3 mph - N/A Snow Light Snow
10:25 AM 35.6 °F 26.2 °F 28.4 °F 75% 29.92 in 6.2 mi ENE 15.0 mph - N/A   Mostly Cloudy
10:55 AM 35.6 °F 25.5 °F 26.6 °F 70% 29.92 in 6.2 mi ENE 17.3 mph - N/A   Mostly Cloudy
11:00 AM 37 °F - 29 °F 62% 29.94 in 7 mi ENE 15.7 mph - - Snow Snow
11:25 AM 37.4 °F 28.2 °F 28.4 °F 70% 29.92 in 6.2 mi ENE 16.1 mph - N/A   Mostly Cloudy
11:55 AM 39.2 °F 29.8 °F 26.6 °F 61% 29.92 in 6.2 mi ENE 18.4 mph - N/A   Partly Cloudy
12:25 PM 39.2 °F 29.8 °F 26.6 °F 61% 29.92 in 6.2 mi ENE 18.4 mph - N/A   Unknown
12:55 PM 39.2 °F 29.6 °F 26.6 °F 61% 29.92 in 6.2 mi NE 19.6 mph - N/A   Mostly Cloudy
1:25 PM 37.4 °F 28.2 °F 26.6 °F 65% 29.92 in 6.2 mi ENE 16.1 mph - N/A   Overcast
1:55 PM 37.4 °F 27.5 °F 26.6 °F 65% 29.92 in 6.2 mi ENE 18.4 mph - N/A   Partly Cloudy
2:00 PM 38 °F - 27 °F 54% 29.93 in 10 mi ENE 17.9 mph - -   Partly Cloudy
2:25 PM 37.4 °F 27.8 °F 26.6 °F 65% 29.92 in 6.2 mi ENE 17.3 mph - N/A   Overcast
2:55 PM 37.4 °F 28.9 °F 26.6 °F 65% 29.92 in 6.2 mi ENE 13.8 mph - N/A   Mostly Cloudy
3:25 PM 39.2 °F 30.8 °F 26.6 °F 61% 29.89 in 6.2 mi ENE 15.0 mph - N/A   Mostly Cloudy
3:55 PM 39.2 °F 30.8 °F 26.6 °F 61% 29.89 in 6.2 mi ENE 15.0 mph - N/A   Overcast
4:25 PM 39.2 °F 31.6 °F 26.6 °F 61% 29.89 in 6.2 mi ENE 12.7 mph - N/A   Overcast
4:55 PM 39.2 °F 31.2 °F 26.6 °F 61% 29.89 in 6.2 mi ENE 13.8 mph - N/A   Overcast
5:00 PM 39 °F - 27 °F 49% 29.89 in 12 mi NE 13.4 mph - -   Overcast
5:25 PM 39.2 °F 31.6 °F 26.6 °F 61% 29.89 in 6.2 mi ENE 12.7 mph - N/A   Overcast
5:55 PM 39.2 °F 31.2 °F 26.6 °F 61% 29.86 in 6.2 mi ENE 13.8 mph - N/A   Overcast
6:25 PM 39.2 °F 31.2 °F 26.6 °F 61% 29.86 in 6.2 mi ENE 13.8 mph - N/A   Overcast
6:55 PM 39.2 °F 31.2 °F 26.6 °F 61% 29.86 in 6.2 mi ENE 13.8 mph - N/A   Partly Cloudy
7:25 PM 39.2 °F 31.6 °F 28.4 °F 65% 29.86 in 6.2 mi ENE 12.7 mph - N/A   Scattered Clouds
7:55 PM 39.2 °F 32.0 °F 28.4 °F 65% 29.86 in 6.2 mi ENE 11.5 mph - N/A   Overcast
8:00 PM 39 °F - 28 °F 52% 29.88 in 12 mi ENE 11.2 mph - -   Partly Cloudy
8:25 PM 39.2 °F 32.5 °F 28.4 °F 65% 29.86 in 6.2 mi ENE 10.4 mph - N/A   Unknown
8:55 PM 39.2 °F 33.0 °F 28.4 °F 65% 29.86 in 6.2 mi NE 9.2 mph - N/A   Overcast
9:25 PM 39.2 °F 33.6 °F 28.4 °F 65% 29.86 in 6.2 mi NE 8.1 mph - N/A   Mostly Cloudy
9:55 PM 39.2 °F 33.6 °F 28.4 °F 65% 29.86 in 6.2 mi NE 8.1 mph - N/A   Mostly Cloudy
10:25 PM 39.2 °F 33.0 °F 28.4 °F 65% 29.86 in 6.2 mi NE 9.2 mph - N/A   Mostly Cloudy
10:55 PM 39.2 °F 34.2 °F 28.4 °F 65% 29.86 in 6.2 mi NE 6.9 mph - N/A   Overcast
11:00 PM 39 °F - 28 °F 52% 29.88 in 14 mi NE 8.9 mph - -   Overcast
11:25 PM 39.2 °F 33.6 °F 28.4 °F 65% 29.86 in 6.2 mi NE 8.1 mph - N/A   Overcast
11:55 PM 39.2 °F 33.0 °F 28.4 °F 65% 29.86 in 6.2 mi NE 9.2 mph - N/A   Mostly Cloudy